THA985 VTCC-VTSP

Flight info

Callsign THA985
Flight time 1h 53m
Altitude 39000
Route PANTA2S PANTA Y7 BKK/N0486F380 Y8 SAVSA SAVSA1C
Aircraft B77W/H-SDE1E2E3FGHIJ2J3J4J5M1RWXY/LB1D1

Departure

Time 2026-05-05 13:51
Airport Chiang Mai International Airport (VTCC)

Arrival

Time 2026-05-05 15:45
Airport Phuket International Airport (VTSP)
Time Latitude Longitude Altitude Speed Heading
2026-05-05 13:33 18.76908 98.96721 1036 ft 0 kts 90°
2026-05-05 13:44 18.76908 98.96713 1036 ft 2 kts 88°
2026-05-05 13:44 18.76907 98.96696 1036 ft 2 kts 85°
2026-05-05 13:44 18.76905 98.96679 1036 ft 2 kts 78°
2026-05-05 13:45 18.76900 98.96662 1036 ft 2 kts 59°
2026-05-05 13:45 18.76889 98.96650 1036 ft 2 kts 16°
2026-05-05 13:45 18.76877 98.96647 1036 ft 1 kts
2026-05-05 13:45 18.76876 98.96647 1036 ft 0 kts
2026-05-05 13:47 18.76877 98.96647 1036 ft 0 kts
2026-05-05 13:47 18.76897 98.96648 1036 ft 8 kts
2026-05-05 13:48 18.76997 98.96641 1036 ft 18 kts 346°
2026-05-05 13:48 18.77104 98.96570 1036 ft 18 kts 309°
2026-05-05 13:48 18.77218 98.96519 1036 ft 22 kts 360°
2026-05-05 13:48 18.77382 98.96519 1036 ft 24 kts 360°
2026-05-05 13:49 18.77548 98.96519 1036 ft 24 kts 360°
2026-05-05 13:49 18.77713 98.96519 1036 ft 24 kts 360°
2026-05-05 13:49 18.77879 98.96520 1036 ft 24 kts 360°
2026-05-05 13:49 18.78045 98.96520 1036 ft 24 kts
2026-05-05 13:50 18.78150 98.96496 1036 ft 24 kts 329°
2026-05-05 13:50 18.78339 98.96375 1036 ft 24 kts 326°
2026-05-05 13:50 18.78366 98.96301 1036 ft 10 kts 242°
2026-05-05 13:50 18.78317 98.96290 1036 ft 1 kts 177°
2026-05-05 13:51 18.78028 98.96293 1036 ft 100 kts 180°
2026-05-05 13:51 18.76926 98.96291 1091 ft 211 kts 180°
2026-05-05 13:51 18.75320 98.96282 2279 ft 235 kts 180°
2026-05-05 13:51 18.73786 98.96278 3955 ft 208 kts 180°
2026-05-05 13:52 18.72324 98.96276 4709 ft 219 kts 180°
2026-05-05 13:52 18.70693 98.96273 4996 ft 248 kts 181°
2026-05-05 13:52 18.68344 98.96267 5855 ft 263 kts 181°
2026-05-05 13:52 18.67085 98.96264 6325 ft 271 kts 181°
2026-05-05 13:53 18.65173 98.96258 7075 ft 278 kts 181°
2026-05-05 13:53 18.63222 98.96253 7897 ft 283 kts 182°
2026-05-05 13:53 18.61240 98.96247 8746 ft 288 kts 182°
2026-05-05 13:53 18.59221 98.96241 9584 ft 292 kts 182°
2026-05-05 13:54 18.57167 98.96234 10343 ft 299 kts 182°
2026-05-05 13:54 18.55014 98.96225 10710 ft 323 kts 182°
2026-05-05 13:54 18.52705 98.96307 10866 ft 350 kts 172°
2026-05-05 13:54 18.50320 98.97180 11213 ft 374 kts 153°
2026-05-05 13:55 18.48164 98.98780 11908 ft 387 kts 136°
2026-05-05 13:55 18.46412 99.00954 12643 ft 395 kts 129°
2026-05-05 13:55 18.44719 99.03259 13582 ft 399 kts 128°
2026-05-05 13:55 18.43026 99.05592 14493 ft 402 kts 128°
2026-05-05 13:56 18.41306 99.07943 15332 ft 408 kts 128°
2026-05-05 13:56 18.39550 99.10315 15878 ft 413 kts 129°
2026-05-05 13:56 18.37766 99.12702 15914 ft 416 kts 129°
2026-05-05 13:56 18.35971 99.15087 15923 ft 415 kts 129°
2026-05-05 13:57 18.34177 99.17462 15915 ft 414 kts 129°
2026-05-05 13:57 18.32389 99.19825 15907 ft 413 kts 129°
2026-05-05 13:57 18.30599 99.22191 15906 ft 413 kts 129°
2026-05-05 13:57 18.28809 99.24556 15901 ft 412 kts 129°
2026-05-05 13:58 18.27026 99.26913 15902 ft 412 kts 129°
2026-05-05 13:58 18.25239 99.29273 15900 ft 412 kts 129°
2026-05-05 13:58 18.23325 99.31479 15890 ft 408 kts 142°
2026-05-05 13:58 18.20850 99.32961 16202 ft 414 kts 161°
2026-05-05 13:59 18.15399 99.34750 17725 ft 421 kts 164°
2026-05-05 13:59 18.12578 99.35662 18500 ft 425 kts 164°
2026-05-05 14:00 18.06875 99.37533 19884 ft 434 kts 163°
2026-05-05 14:00 18.03977 99.38495 20559 ft 439 kts 163°
2026-05-05 14:00 18.01054 99.39469 21236 ft 443 kts 163°
2026-05-05 14:00 17.98099 99.40456 21890 ft 448 kts 163°
2026-05-05 14:01 17.95117 99.41453 22530 ft 452 kts 163°
2026-05-05 14:01 17.92140 99.42448 23156 ft 457 kts 163°
2026-05-05 14:01 17.89089 99.43467 23723 ft 461 kts 163°
2026-05-05 14:01 17.86019 99.44492 24222 ft 465 kts 163°
2026-05-05 14:02 17.82923 99.45525 24743 ft 469 kts 163°
2026-05-05 14:02 17.79798 99.46567 25257 ft 472 kts 163°
2026-05-05 14:02 17.76658 99.47614 25756 ft 476 kts 163°
2026-05-05 14:02 17.73493 99.48669 26255 ft 479 kts 163°
2026-05-05 14:03 17.70298 99.49733 26727 ft 483 kts 163°
2026-05-05 14:03 17.67082 99.50802 27193 ft 487 kts 163°
2026-05-05 14:03 17.63839 99.51879 27651 ft 490 kts 163°
2026-05-05 14:03 17.60580 99.52961 28094 ft 494 kts 163°
2026-05-05 14:04 17.57288 99.54055 28542 ft 498 kts 163°
2026-05-05 14:04 17.53969 99.55157 28973 ft 501 kts 163°
2026-05-05 14:04 17.50638 99.56263 29399 ft 504 kts 163°
2026-05-05 14:04 17.47277 99.57378 29783 ft 508 kts 163°
2026-05-05 14:05 17.43902 99.58498 30105 ft 511 kts 163°
2026-05-05 14:05 17.40506 99.59624 30411 ft 513 kts 163°
2026-05-05 14:05 17.37098 99.60754 30780 ft 513 kts 163°
2026-05-05 14:05 17.33702 99.61880 31252 ft 511 kts 163°
2026-05-05 14:06 17.30310 99.63004 31749 ft 509 kts 163°
2026-05-05 14:06 17.26941 99.64119 32221 ft 508 kts 163°
2026-05-05 14:06 17.23569 99.65235 32673 ft 507 kts 163°
2026-05-05 14:06 17.20216 99.66345 33118 ft 506 kts 163°
2026-05-05 14:07 17.16854 99.67457 33553 ft 506 kts 163°
2026-05-05 14:07 17.13504 99.68564 33980 ft 505 kts 163°
2026-05-05 14:07 17.10152 99.69672 34393 ft 504 kts 163°
2026-05-05 14:07 17.06810 99.70776 34785 ft 503 kts 163°
2026-05-05 14:08 17.03485 99.71874 35165 ft 502 kts 163°
2026-05-05 14:08 17.00153 99.72974 35568 ft 501 kts 163°
2026-05-05 14:08 16.96878 99.74055 35967 ft 499 kts 163°
2026-05-05 14:08 16.93572 99.75146 36336 ft 498 kts 163°
2026-05-05 14:09 16.90260 99.76238 36702 ft 498 kts 163°
2026-05-05 14:09 16.86965 99.77324 37062 ft 497 kts 163°
2026-05-05 14:09 16.83671 99.78410 37431 ft 496 kts 163°
2026-05-05 14:09 16.80374 99.79497 37770 ft 496 kts 163°
2026-05-05 14:10 16.77087 99.80583 38106 ft 495 kts 163°
2026-05-05 14:10 16.73808 99.81668 38423 ft 495 kts 163°
2026-05-05 14:10 16.70521 99.82754 38694 ft 494 kts 163°
2026-05-05 14:10 16.67237 99.83840 38791 ft 498 kts 163°
2026-05-05 14:11 16.60608 99.86029 38854 ft 499 kts 163°
2026-05-05 14:11 16.54031 99.88200 38849 ft 492 kts 163°
2026-05-05 14:12 16.47516 99.90348 38856 ft 490 kts 163°
2026-05-05 14:12 16.41015 99.92490 38857 ft 490 kts 163°
2026-05-05 14:13 16.34523 99.94628 38864 ft 490 kts 163°
2026-05-05 14:13 16.28049 99.96763 38863 ft 491 kts 163°
2026-05-05 14:14 16.21527 99.98919 38862 ft 492 kts 163°
2026-05-05 14:14 16.14987 100.01080 38865 ft 494 kts 163°
2026-05-05 14:15 16.08428 100.03244 38862 ft 494 kts 163°
2026-05-05 14:15 16.01862 100.05410 38861 ft 495 kts 163°
2026-05-05 14:16 15.95300 100.07572 38861 ft 494 kts 163°
2026-05-05 14:16 15.88782 100.09719 38861 ft 494 kts 163°
2026-05-05 14:17 15.82229 100.11875 38863 ft 493 kts 163°
2026-05-05 14:17 15.75690 100.14026 38868 ft 492 kts 163°
2026-05-05 14:18 15.69162 100.16171 38863 ft 491 kts 163°
2026-05-05 14:18 15.62651 100.18310 38867 ft 491 kts 163°
2026-05-05 14:19 15.56145 100.20445 38863 ft 490 kts 163°
2026-05-05 14:19 15.49643 100.22578 38871 ft 489 kts 163°
2026-05-05 14:20 15.43159 100.24704 38874 ft 489 kts 163°
2026-05-05 14:20 15.36679 100.26827 38875 ft 488 kts 163°
2026-05-05 14:21 15.30234 100.28937 38875 ft 488 kts 163°
2026-05-05 14:21 15.23677 100.30740 38882 ft 487 kts 168°
2026-05-05 14:22 15.17024 100.32153 38880 ft 488 kts 169°
2026-05-05 14:22 15.10369 100.33547 38880 ft 488 kts 169°
2026-05-05 14:23 15.03715 100.34972 38880 ft 488 kts 169°
2026-05-05 14:23 14.97062 100.36412 38875 ft 489 kts 168°
2026-05-05 14:24 14.90399 100.37856 38877 ft 489 kts 168°
2026-05-05 14:24 14.83740 100.39297 38881 ft 489 kts 168°
2026-05-05 14:25 14.77073 100.40737 38878 ft 489 kts 168°
2026-05-05 14:25 14.70459 100.42165 38881 ft 489 kts 168°
2026-05-05 14:26 14.63791 100.43604 38883 ft 489 kts 168°
2026-05-05 14:26 14.57126 100.45042 38884 ft 489 kts 168°
2026-05-05 14:27 14.50465 100.46477 38882 ft 489 kts 168°
2026-05-05 14:27 14.43804 100.47912 38884 ft 488 kts 168°
2026-05-05 14:28 14.37195 100.49335 38879 ft 488 kts 168°
2026-05-05 14:28 14.30543 100.50766 38883 ft 488 kts 168°
2026-05-05 14:29 14.23900 100.52194 38882 ft 488 kts 168°
2026-05-05 14:29 14.17254 100.53622 38885 ft 487 kts 168°
2026-05-05 14:30 14.10611 100.55049 38886 ft 487 kts 168°
2026-05-05 14:30 14.03963 100.56476 38882 ft 488 kts 168°
2026-05-05 14:31 13.97321 100.57902 38887 ft 488 kts 168°
2026-05-05 14:31 13.90703 100.58889 38877 ft 487 kts 180°
2026-05-05 14:32 13.83991 100.58123 38881 ft 486 kts 195°
2026-05-05 14:32 13.77499 100.56167 38886 ft 486 kts 198°
2026-05-05 14:33 13.71032 100.54144 38884 ft 486 kts 197°
2026-05-05 14:33 13.64532 100.52170 38887 ft 487 kts 197°
2026-05-05 14:34 13.58025 100.50230 38887 ft 487 kts 197°
2026-05-05 14:34 13.51521 100.48296 38885 ft 487 kts 197°
2026-05-05 14:35 13.45014 100.46359 38890 ft 487 kts 197°
2026-05-05 14:35 13.38509 100.44422 38889 ft 487 kts 197°
2026-05-05 14:36 13.32008 100.42487 38888 ft 486 kts 197°
2026-05-05 14:36 13.25551 100.40567 38887 ft 486 kts 197°
2026-05-05 14:37 13.19253 100.38015 38889 ft 483 kts 212°
2026-05-05 14:37 13.13978 100.33872 38892 ft 480 kts 226°
2026-05-05 14:38 13.09370 100.28916 38891 ft 481 kts 227°
2026-05-05 14:38 13.04741 100.23962 38891 ft 481 kts 227°
2026-05-05 14:39 13.00054 100.19055 38891 ft 481 kts 226°
2026-05-05 14:39 12.95355 100.14163 38894 ft 481 kts 226°
2026-05-05 14:40 12.91443 100.10099 38892 ft 481 kts 226°
2026-05-05 14:40 12.86741 100.05212 38893 ft 481 kts 226°
2026-05-05 14:41 12.82045 100.00332 38892 ft 481 kts 226°
2026-05-05 14:41 12.77350 99.95454 38886 ft 480 kts 226°
2026-05-05 14:42 12.72656 99.90581 38885 ft 480 kts 226°
2026-05-05 14:42 12.67963 99.85710 38886 ft 480 kts 226°
2026-05-05 14:43 12.63276 99.80848 38890 ft 480 kts 226°
2026-05-05 14:43 12.57946 99.76910 38900 ft 481 kts 202°
2026-05-05 14:44 12.54721 99.75971 38904 ft 483 kts 189°
2026-05-05 14:44 12.51362 99.75795 38912 ft 483 kts 180°
2026-05-05 14:44 12.44624 99.75909 38913 ft 485 kts 180°
2026-05-05 14:45 12.37866 99.76010 38920 ft 487 kts 180°
2026-05-05 14:45 12.31076 99.76043 38922 ft 488 kts 181°
2026-05-05 14:46 12.24271 99.76047 38922 ft 489 kts 181°
2026-05-05 14:46 12.17472 99.76050 38921 ft 489 kts 181°
2026-05-05 14:47 12.10665 99.76056 38924 ft 489 kts 181°
2026-05-05 14:47 12.03908 99.76064 38927 ft 488 kts 181°
2026-05-05 14:48 11.97117 99.76072 38921 ft 488 kts 181°
2026-05-05 14:48 11.90323 99.76080 38930 ft 488 kts 181°
2026-05-05 14:49 11.83535 99.76088 38922 ft 487 kts 181°
2026-05-05 14:49 11.76750 99.76095 38920 ft 487 kts 181°
2026-05-05 14:50 11.69974 99.76104 38921 ft 487 kts 181°
2026-05-05 14:50 11.63201 99.76116 38920 ft 487 kts 181°
2026-05-05 14:51 11.56426 99.76128 38915 ft 487 kts 181°
2026-05-05 14:51 11.49643 99.76140 38921 ft 487 kts 181°
2026-05-05 14:52 11.42865 99.76151 38917 ft 487 kts 180°
2026-05-05 14:52 11.36138 99.76163 38912 ft 486 kts 180°
2026-05-05 14:53 11.29374 99.76174 38913 ft 486 kts 180°
2026-05-05 14:53 11.22607 99.76186 38914 ft 485 kts 180°
2026-05-05 14:54 11.15858 99.76031 38904 ft 484 kts 187°
2026-05-05 14:54 11.09265 99.74756 38906 ft 482 kts 197°
2026-05-05 14:55 11.02862 99.72733 38918 ft 481 kts 198°
2026-05-05 14:55 10.96477 99.70672 38916 ft 481 kts 198°
2026-05-05 14:56 10.90122 99.68654 38920 ft 481 kts 198°
2026-05-05 14:56 10.83733 99.66650 38920 ft 481 kts 198°
2026-05-05 14:57 10.77345 99.64653 38920 ft 480 kts 198°
2026-05-05 14:57 10.70950 99.62654 38919 ft 480 kts 197°
2026-05-05 14:58 10.64565 99.60657 38914 ft 480 kts 197°
2026-05-05 14:58 10.58174 99.58659 38919 ft 480 kts 197°
2026-05-05 14:59 10.51822 99.56674 38918 ft 481 kts 197°
2026-05-05 14:59 10.45408 99.54671 38918 ft 482 kts 197°
2026-05-05 15:00 10.40066 99.53003 38916 ft 483 kts 197°
2026-05-05 15:00 10.32535 99.50653 38914 ft 485 kts 197°
2026-05-05 15:01 10.26077 99.48639 38915 ft 486 kts 197°
2026-05-05 15:01 10.19606 99.46621 38912 ft 487 kts 197°
2026-05-05 15:02 10.13118 99.44599 38917 ft 488 kts 197°
2026-05-05 15:02 10.06624 99.42576 38913 ft 489 kts 197°
2026-05-05 15:03 10.00100 99.40544 38759 ft 493 kts 197°
2026-05-05 15:03 9.96825 99.39524 37954 ft 502 kts 197°
2026-05-05 15:03 9.93490 99.38486 37256 ft 500 kts 197°
2026-05-05 15:04 9.90172 99.37453 36523 ft 499 kts 197°
2026-05-05 15:04 9.86852 99.36421 35783 ft 498 kts 197°
2026-05-05 15:04 9.83541 99.35391 35076 ft 497 kts 196°
2026-05-05 15:04 9.80247 99.34366 34516 ft 493 kts 196°
2026-05-05 15:05 9.73728 99.32340 33341 ft 486 kts 196°
2026-05-05 15:05 9.70506 99.31339 32783 ft 482 kts 196°
2026-05-05 15:05 9.67317 99.30348 32242 ft 478 kts 196°
2026-05-05 15:06 9.64149 99.29363 31712 ft 474 kts 196°
2026-05-05 15:06 9.61004 99.28386 31195 ft 471 kts 196°
2026-05-05 15:06 9.57884 99.27417 30668 ft 467 kts 195°
2026-05-05 15:06 9.54787 99.26455 30146 ft 465 kts 195°
2026-05-05 15:07 9.51705 99.25499 29570 ft 462 kts 195°
2026-05-05 15:07 9.48639 99.24548 29001 ft 459 kts 195°
2026-05-05 15:07 9.45596 99.23604 28458 ft 455 kts 195°
2026-05-05 15:07 9.42584 99.22670 27929 ft 452 kts 195°
2026-05-05 15:08 9.39588 99.21740 27411 ft 448 kts 195°
2026-05-05 15:08 9.36614 99.20818 26897 ft 445 kts 195°
2026-05-05 15:08 9.33665 99.19904 26390 ft 442 kts 195°
2026-05-05 15:08 9.30734 99.18995 25883 ft 440 kts 195°
2026-05-05 15:09 9.27814 99.18090 25362 ft 438 kts 195°
2026-05-05 15:09 9.24909 99.17190 24865 ft 436 kts 195°
2026-05-05 15:09 9.22016 99.16293 24352 ft 434 kts 195°
2026-05-05 15:09 9.19128 99.15399 23853 ft 433 kts 195°
2026-05-05 15:10 9.16257 99.14482 23330 ft 434 kts 198°
2026-05-05 15:10 9.13495 99.13260 22753 ft 434 kts 206°
2026-05-05 15:10 9.10887 99.11726 22238 ft 433 kts 212°
2026-05-05 15:10 9.08468 99.09911 21733 ft 432 kts 218°
2026-05-05 15:11 9.06143 99.07993 21234 ft 430 kts 218°
2026-05-05 15:11 9.03842 99.06071 20762 ft 429 kts 218°
2026-05-05 15:11 9.01543 99.04154 20266 ft 427 kts 218°
2026-05-05 15:11 8.99250 99.02254 19759 ft 426 kts 218°
2026-05-05 15:12 8.96949 99.00360 19253 ft 425 kts 218°
2026-05-05 15:12 8.94687 98.98505 18753 ft 425 kts 218°
2026-05-05 15:12 8.92395 98.96629 18239 ft 424 kts 218°
2026-05-05 15:12 8.90103 98.94754 17685 ft 423 kts 218°
2026-05-05 15:13 8.87819 98.92886 17141 ft 421 kts 218°
2026-05-05 15:13 8.85550 98.91030 16641 ft 419 kts 218°
2026-05-05 15:13 8.83288 98.89181 16132 ft 417 kts 218°
2026-05-05 15:13 8.81040 98.87343 15641 ft 415 kts 218°
2026-05-05 15:14 8.78795 98.85512 15134 ft 413 kts 217°
2026-05-05 15:14 8.76560 98.83697 14647 ft 412 kts 217°
2026-05-05 15:14 8.74326 98.81888 14123 ft 411 kts 217°
2026-05-05 15:14 8.72092 98.80079 13627 ft 410 kts 217°
2026-05-05 15:15 8.69870 98.78278 13084 ft 409 kts 217°
2026-05-05 15:15 8.67656 98.76484 12560 ft 407 kts 217°
2026-05-05 15:15 8.65460 98.74704 12078 ft 404 kts 217°
2026-05-05 15:15 8.63272 98.72930 11672 ft 400 kts 217°
2026-05-05 15:16 8.61096 98.71166 11210 ft 399 kts 217°
2026-05-05 15:16 8.58949 98.69427 10797 ft 393 kts 217°
2026-05-05 15:16 8.56858 98.67733 10550 ft 385 kts 217°
2026-05-05 15:16 8.54803 98.66066 10479 ft 373 kts 217°
2026-05-05 15:17 8.52813 98.64454 10408 ft 361 kts 217°
2026-05-05 15:17 8.50877 98.62886 10343 ft 351 kts 217°
2026-05-05 15:17 8.48935 98.61461 10277 ft 340 kts 211°
2026-05-05 15:17 8.46933 98.60249 10205 ft 329 kts 208°
2026-05-05 15:18 8.45026 98.59143 10023 ft 305 kts 208°
2026-05-05 15:18 8.43221 98.58080 9721 ft 299 kts 208°
2026-05-05 15:18 8.41445 98.57013 9613 ft 295 kts 209°
2026-05-05 15:18 8.39705 98.55955 9498 ft 289 kts 209°
2026-05-05 15:19 8.37991 98.54908 9351 ft 286 kts 209°
2026-05-05 15:19 8.36274 98.53967 9182 ft 276 kts 195°
2026-05-05 15:19 8.34404 98.53757 8954 ft 268 kts 173°
2026-05-05 15:19 8.32552 98.53944 8729 ft 267 kts 172°
2026-05-05 15:20 8.30705 98.54132 8530 ft 267 kts 172°
2026-05-05 15:20 8.28862 98.54314 8357 ft 266 kts 172°
2026-05-05 15:20 8.27026 98.54491 8148 ft 265 kts 172°
2026-05-05 15:20 8.25193 98.54665 7973 ft 264 kts 172°
2026-05-05 15:21 8.23366 98.54838 7787 ft 263 kts 172°
2026-05-05 15:21 8.21545 98.55010 7616 ft 263 kts 172°
2026-05-05 15:21 8.19731 98.55181 7422 ft 262 kts 172°
2026-05-05 15:21 8.17922 98.55351 7321 ft 257 kts 172°
2026-05-05 15:22 8.16167 98.55477 7247 ft 248 kts 181°
2026-05-05 15:22 8.14551 98.54950 7131 ft 246 kts 214°
2026-05-05 15:22 8.13429 98.53681 7055 ft 242 kts 241°
2026-05-05 15:22 8.12888 98.52101 6930 ft 237 kts 258°
2026-05-05 15:23 8.12673 98.50457 6756 ft 236 kts 265°
2026-05-05 15:23 8.12569 98.48832 6592 ft 233 kts 266°
2026-05-05 15:23 8.12470 98.47239 6566 ft 222 kts 266°
2026-05-05 15:23 8.12368 98.45721 6434 ft 210 kts 266°
2026-05-05 15:24 8.12268 98.44282 6166 ft 204 kts 266°
2026-05-05 15:24 8.12171 98.42856 5895 ft 205 kts 266°
2026-05-05 15:24 8.12093 98.41401 5344 ft 210 kts 265°
2026-05-05 15:24 8.11948 98.40125 4750 ft 0 kts 263°
2026-05-05 15:25 8.11840 98.39054 4175 ft 212 kts 267°
2026-05-05 15:25 8.11821 98.37543 3072 ft 218 kts 272°
2026-05-05 15:25 8.11812 98.36028 2221 ft 216 kts 266°
2026-05-05 15:25 8.11612 98.34524 1343 ft 216 kts 263°
2026-05-05 15:26 8.11423 98.32974 1204 ft 233 kts 264°
2026-05-05 15:26 8.11286 98.31268 1742 ft 250 kts 267°
2026-05-05 15:26 8.11114 98.29479 1331 ft 259 kts 263°
2026-05-05 15:26 8.10849 98.27705 1185 ft 255 kts 262°
2026-05-05 15:27 8.10581 98.25963 1248 ft 250 kts 262°
2026-05-05 15:27 8.10306 98.24189 1514 ft 260 kts 262°
2026-05-05 15:27 8.10028 98.22392 1748 ft 258 kts 262°
2026-05-05 15:27 8.09819 98.20585 1995 ft 261 kts 266°
2026-05-05 15:28 8.09707 98.18739 2245 ft 265 kts 266°
2026-05-05 15:28 8.09573 98.16882 2483 ft 265 kts 266°
2026-05-05 15:28 8.09817 98.15082 2676 ft 262 kts 296°
2026-05-05 15:28 8.11011 98.13718 2852 ft 265 kts 327°
2026-05-05 15:29 8.12150 98.13189 2918 ft 270 kts 346°
2026-05-05 15:29 8.14597 98.13328 2985 ft 269 kts 24°
2026-05-05 15:29 8.15633 98.13994 3011 ft 267 kts 43°
2026-05-05 15:29 8.16621 98.15548 3017 ft 265 kts 73°
2026-05-05 15:30 8.16717 98.18012 3033 ft 264 kts 96°
2026-05-05 15:30 8.16566 98.19231 3032 ft 266 kts 97°
2026-05-05 15:30 8.16326 98.21092 3032 ft 268 kts 97°
2026-05-05 15:30 8.16086 98.22956 3029 ft 269 kts 97°
2026-05-05 15:31 8.15852 98.24824 2967 ft 266 kts 96°
2026-05-05 15:31 8.15626 98.26667 2771 ft 264 kts 96°
2026-05-05 15:31 8.15404 98.28493 2607 ft 259 kts 96°
2026-05-05 15:31 8.15186 98.30290 2562 ft 259 kts 97°
2026-05-05 15:32 8.14668 98.32034 2540 ft 266 kts 120°
2026-05-05 15:32 8.13365 98.33314 2526 ft 259 kts 151°
2026-05-05 15:32 8.11692 98.33781 2512 ft 245 kts 182°
2026-05-05 15:32 8.10125 98.33333 2509 ft 229 kts 212°
2026-05-05 15:33 8.08996 98.32295 2514 ft 212 kts 232°
2026-05-05 15:33 8.08281 98.31066 2483 ft 196 kts 258°
2026-05-05 15:33 8.08449 98.29750 2465 ft 194 kts 308°
2026-05-05 15:33 8.09532 98.29046 2515 ft 187 kts 357°
2026-05-05 15:34 8.10763 98.29283 2512 ft 178 kts 12°
2026-05-05 15:34 8.11966 98.29145 2112 ft 178 kts 330°
2026-05-05 15:34 8.12769 98.28257 1786 ft 174 kts 299°
2026-05-05 15:34 8.13349 98.27152 1783 ft 182 kts 299°
2026-05-05 15:35 8.13956 98.26031 1733 ft 180 kts 300°
2026-05-05 15:35 8.14549 98.24937 1728 ft 176 kts 300°
2026-05-05 15:35 8.15146 98.23830 1838 ft 182 kts 299°
2026-05-05 15:35 8.15759 98.22692 2034 ft 186 kts 299°
2026-05-05 15:36 8.16388 98.21536 2163 ft 190 kts 300°
2026-05-05 15:36 8.17025 98.20367 2350 ft 190 kts 299°
2026-05-05 15:36 8.17663 98.19198 2505 ft 190 kts 299°
2026-05-05 15:36 8.18303 98.18024 2651 ft 191 kts 299°
2026-05-05 15:37 8.18947 98.16847 2793 ft 192 kts 299°
2026-05-05 15:37 8.19597 98.15661 2922 ft 194 kts 299°
2026-05-05 15:37 8.20252 98.14467 2972 ft 194 kts 299°
2026-05-05 15:37 8.20902 98.13278 3015 ft 192 kts 297°
2026-05-05 15:38 8.21115 98.12013 3001 ft 184 kts 252°
2026-05-05 15:38 8.20313 98.11042 3034 ft 187 kts 202°
2026-05-05 15:38 8.19041 98.10831 3055 ft 187 kts 184°
2026-05-05 15:38 8.17720 98.10737 3042 ft 190 kts 184°
2026-05-05 15:39 8.16420 98.10651 3016 ft 184 kts 183°
2026-05-05 15:39 8.15147 98.10575 3014 ft 183 kts 183°
2026-05-05 15:39 8.13867 98.10503 3033 ft 185 kts 183°
2026-05-05 15:39 8.12577 98.10432 3044 ft 187 kts 183°
2026-05-05 15:40 8.11292 98.10369 3038 ft 187 kts 178°
2026-05-05 15:40 8.10098 98.10787 2901 ft 184 kts 137°
2026-05-05 15:40 8.09521 98.11898 2511 ft 182 kts 92°
2026-05-05 15:40 8.09613 98.13165 2141 ft 181 kts 84°
2026-05-05 15:41 8.09721 98.14426 1860 ft 180 kts 84°
2026-05-05 15:41 8.09826 98.15640 1773 ft 170 kts 84°
2026-05-05 15:41 8.09936 98.16852 1745 ft 176 kts 84°
2026-05-05 15:41 8.10050 98.18101 1746 ft 181 kts 84°
2026-05-05 15:42 8.10167 98.19364 1736 ft 180 kts 83°
2026-05-05 15:42 8.10282 98.20614 1728 ft 178 kts 83°
2026-05-05 15:42 8.10397 98.21852 1722 ft 177 kts 83°
2026-05-05 15:42 8.10514 98.23095 1620 ft 182 kts 83°
2026-05-05 15:43 8.10631 98.24341 1547 ft 176 kts 83°
2026-05-05 15:43 8.10746 98.25574 1367 ft 177 kts 83°
2026-05-05 15:43 8.10876 98.26811 1033 ft 176 kts 84°
2026-05-05 15:43 8.10962 98.28019 788 ft 175 kts 84°
2026-05-05 15:44 8.11094 98.29198 458 ft 160 kts 82°
2026-05-05 15:44 8.11169 98.30235 161 ft 139 kts 84°
2026-05-05 15:44 8.11253 98.31190 62 ft 133 kts 81°
2026-05-05 15:44 8.11347 98.31995 65 ft 92 kts 84°
2026-05-05 15:45 8.11392 98.32425 85 ft 17 kts 84°
2026-05-05 15:45 8.11405 98.32565 89 ft 20 kts 89°
2026-05-05 15:45 8.11303 98.32610 87 ft 21 kts 220°
2026-05-05 15:45 8.11263 98.32473 86 ft 21 kts 262°
2026-05-05 15:46 8.11249 98.32328 83 ft 21 kts 264°
2026-05-05 15:46 8.11236 98.32183 76 ft 21 kts 264°
2026-05-05 15:46 8.11222 98.32039 73 ft 21 kts 263°
2026-05-05 15:46 8.11206 98.31894 63 ft 21 kts 264°
2026-05-05 15:47 8.11191 98.31749 64 ft 21 kts 265°
2026-05-05 15:47 8.11183 98.31654 62 ft 21 kts 265°
2026-05-05 15:47 8.11168 98.31460 60 ft 21 kts 265°
2026-05-05 15:47 8.11155 98.31315 57 ft 21 kts 264°
2026-05-05 15:48 8.11142 98.31172 53 ft 21 kts 264°
2026-05-05 15:48 8.11126 98.31026 49 ft 21 kts 263°
2026-05-05 15:48 8.11086 98.30888 46 ft 21 kts 261°
2026-05-05 15:48 8.11071 98.30732 42 ft 23 kts 264°
2026-05-05 15:49 8.11051 98.30640 40 ft 6 kts 210°
2026-05-05 15:49 8.11007 98.30634 40 ft 7 kts 179°
2026-05-05 15:49 8.10985 98.30636 40 ft 0 kts 175°